Time,TemperatureF,DewpointF,PressureIn,WindDirection,WindDirectionDegrees,WindSpeedMPH,WindSpeedGustMPH,Humidity,HourlyPrecipIn,Conditions,Clouds,dailyrainin,SoftwareType,DateUTC
2013-03-09 00:01:00,24.0,21.0,29.75,SSE,162,0.0,-999.0,88,-99.99,,,-99.99,,2013-03-09 07:01:00,
2013-03-09 00:11:00,24.0,21.0,29.75,SSE,162,0.0,-999.0,88,-99.99,,,-99.99,,2013-03-09 07:11:00,
2013-03-09 00:21:00,24.0,21.0,29.74,SSE,162,0.0,-999.0,88,-99.99,,,-99.99,,2013-03-09 07:21:00,
2013-03-09 00:31:00,24.0,21.0,29.73,SSE,162,0.0,-999.0,88,-99.99,,,-99.99,,2013-03-09 07:31:00,
2013-03-09 00:41:00,24.0,21.0,29.73,SSE,162,0.0,-999.0,88,-99.99,,,-99.99,,2013-03-09 07:41:00,
2013-03-09 00:52:00,23.0,20.0,29.73,SSE,162,0.0,-999.0,88,-99.99,,,-99.99,,2013-03-09 07:52:00,
2013-03-09 01:01:00,23.0,20.0,29.73,SSE,162,0.0,-999.0,88,-99.99,,,-99.99,,2013-03-09 08:01:00,
2013-03-09 01:11:00,23.0,20.0,29.73,SSE,162,0.0,-999.0,88,-99.99,,,-99.99,,2013-03-09 08:11:00,
2013-03-09 01:22:00,23.0,20.0,29.72,SSE,162,0.0,-999.0,89,-99.99,,,-99.99,,2013-03-09 08:22:00,
2013-03-09 01:31:00,23.0,20.0,29.72,SSE,162,0.0,-999.0,89,-99.99,,,-99.99,,2013-03-09 08:31:00,
2013-03-09 01:41:00,23.0,20.0,29.72,SSE,162,0.0,-999.0,89,-99.99,,,-99.99,,2013-03-09 08:41:00,
2013-03-09 01:52:00,23.0,20.0,29.71,SSE,162,0.0,-999.0,88,-99.99,,,-99.99,,2013-03-09 08:52:00,
2013-03-09 02:01:00,23.0,20.0,29.71,SSE,162,0.0,-999.0,87,-99.99,,,-99.99,,2013-03-09 09:01:00,
2013-03-09 02:12:00,23.0,20.0,29.71,SSE,162,0.0,-999.0,87,-99.99,,,-99.99,,2013-03-09 09:12:00,
2013-03-09 02:21:00,23.0,20.0,29.70,SSE,162,0.0,-999.0,88,-99.99,,,-99.99,,2013-03-09 09:21:00,
2013-03-09 02:31:00,23.0,20.0,29.70,SSE,162,0.0,-999.0,88,-99.99,,,-99.99,,2013-03-09 09:31:00,
2013-03-09 02:41:00,23.0,20.0,29.70,SSE,162,0.0,-999.0,88,-99.99,,,-99.99,,2013-03-09 09:41:00,
2013-03-09 02:52:00,23.0,20.0,29.68,SSE,162,0.0,-999.0,89,-99.99,,,-99.99,,2013-03-09 09:52:00,
2013-03-09 03:01:00,22.0,19.0,29.67,SSE,162,0.0,-999.0,88,-99.99,,,-99.99,,2013-03-09 10:01:00,
2013-03-09 03:11:00,22.0,19.0,29.67,SSE,162,0.0,-999.0,88,-99.99,,,-99.99,,2013-03-09 10:11:00,
2013-03-09 03:21:00,22.0,19.0,29.67,SSE,162,0.0,-999.0,88,-99.99,,,-99.99,,2013-03-09 10:21:00,
2013-03-09 03:31:00,22.0,19.0,29.67,ENE,67,0.0,-999.0,87,-99.99,,,-99.99,,2013-03-09 10:31:00,
2013-03-09 03:41:00,22.0,19.0,29.67,ENE,67,0.0,-999.0,87,-99.99,,,-99.99,,2013-03-09 10:41:00,
2013-03-09 03:52:00,22.0,18.0,29.68,ENE,67,0.0,-999.0,86,-99.99,,,-99.99,,2013-03-09 10:52:00,
2013-03-09 04:01:00,22.0,18.0,29.67,North,11,0.0,-999.0,83,-99.99,,,-99.99,,2013-03-09 11:01:00,
2013-03-09 04:11:00,22.0,18.0,29.67,North,11,0.0,-999.0,83,-99.99,,,-99.99,,2013-03-09 11:11:00,
2013-03-09 04:21:00,22.0,17.0,29.67,NNE,17,0.0,-999.0,80,-99.99,,,-99.99,,2013-03-09 11:21:00,
2013-03-09 04:32:00,21.0,15.0,29.65,NW,313,1.0,-999.0,78,-99.99,,,-99.99,,2013-03-09 11:32:00,
2013-03-09 04:42:00,21.0,15.0,29.65,NW,313,1.0,-999.0,78,-99.99,,,-99.99,,2013-03-09 11:42:00,
2013-03-09 04:52:00,21.0,16.0,29.66,NW,313,0.0,-999.0,79,-99.99,,,-99.99,,2013-03-09 11:52:00,
2013-03-09 05:01:00,20.0,14.0,29.64,NW,304,0.0,-999.0,78,-99.99,,,-99.99,,2013-03-09 12:01:00,
2013-03-09 05:11:00,20.0,14.0,29.64,NW,304,0.0,-999.0,78,-99.99,,,-99.99,,2013-03-09 12:11:00,
2013-03-09 05:21:00,19.0,13.0,29.63,West,281,1.0,-999.0,77,-99.99,,,-99.99,,2013-03-09 12:21:00,
2013-03-09 05:32:00,19.0,12.0,29.64,NW,324,0.0,-999.0,75,-99.99,,,-99.99,,2013-03-09 12:32:00,
2013-03-09 05:42:00,19.0,12.0,29.64,NW,324,0.0,-999.0,75,-99.99,,,-99.99,,2013-03-09 12:42:00,
2013-03-09 05:52:00,19.0,13.0,29.65,North,360,0.0,-999.0,76,-99.99,,,-99.99,,2013-03-09 12:52:00,
2013-03-09 06:02:00,18.0,12.0,29.66,North,360,0.0,-999.0,77,-99.99,,,-99.99,,2013-03-09 13:02:00,
2013-03-09 06:11:00,18.0,12.0,29.66,North,360,0.0,-999.0,77,-99.99,,,-99.99,,2013-03-09 13:11:00,
2013-03-09 06:21:00,17.0,11.0,29.66,ESE,113,1.0,-999.0,78,-99.99,,,-99.99,,2013-03-09 13:21:00,
2013-03-09 06:31:00,17.0,12.0,29.67,ESE,113,0.0,-999.0,80,-99.99,,,-99.99,,2013-03-09 13:31:00,
2013-03-09 06:42:00,17.0,12.0,29.67,ESE,113,0.0,-999.0,80,-99.99,,,-99.99,,2013-03-09 13:42:00,
2013-03-09 06:52:00,17.0,12.0,29.67,ESE,113,0.0,-999.0,82,-99.99,,,-99.99,,2013-03-09 13:52:00,
2013-03-09 07:01:00,16.0,12.0,29.67,ESE,113,0.0,-999.0,84,-99.99,,,-99.99,,2013-03-09 14:01:00,
2013-03-09 07:11:00,16.0,12.0,29.67,ESE,113,0.0,-999.0,84,-99.99,,,-99.99,,2013-03-09 14:11:00,
2013-03-09 07:21:00,17.0,13.0,29.67,ESE,113,0.0,-999.0,84,-99.99,,,-99.99,,2013-03-09 14:21:00,
2013-03-09 07:32:00,17.0,13.0,29.67,ESE,113,0.0,-999.0,84,-99.99,,,-99.99,,2013-03-09 14:32:00,
2013-03-09 07:42:00,17.0,13.0,29.67,ESE,113,0.0,-999.0,84,-99.99,,,-99.99,,2013-03-09 14:42:00,
2013-03-09 07:52:00,18.0,14.0,29.67,South,180,0.0,-999.0,85,-99.99,,,-99.99,,2013-03-09 14:52:00,
2013-03-09 08:01:00,19.0,15.0,29.67,South,180,0.0,-999.0,85,-99.99,,,-99.99,,2013-03-09 15:01:00,
2013-03-09 08:11:00,19.0,15.0,29.67,South,180,0.0,-999.0,85,-99.99,,,-99.99,,2013-03-09 15:11:00,
2013-03-09 08:22:00,19.0,15.0,29.68,South,180,0.0,-999.0,85,-99.99,,,-99.99,,2013-03-09 15:22:00,
2013-03-09 08:31:00,20.0,16.0,29.68,South,180,0.0,-999.0,84,-99.99,,,-99.99,,2013-03-09 15:31:00,
2013-03-09 08:42:00,20.0,16.0,29.68,South,180,0.0,-999.0,84,-99.99,,,-99.99,,2013-03-09 15:42:00,
2013-03-09 08:52:00,20.0,16.0,29.68,South,180,0.0,-999.0,84,-99.99,,,-99.99,,2013-03-09 15:52:00,
2013-03-09 09:01:00,21.0,17.0,29.68,SSW,196,0.0,-999.0,83,-99.99,,,-99.99,,2013-03-09 16:01:00,
2013-03-09 09:11:00,21.0,17.0,29.68,SSW,196,0.0,-999.0,83,-99.99,,,-99.99,,2013-03-09 16:11:00,
2013-03-09 09:21:00,21.0,17.0,29.69,SSW,197,0.0,-999.0,83,-99.99,,,-99.99,,2013-03-09 16:21:00,
2013-03-09 09:32:00,21.0,17.0,29.69,SSW,197,0.0,-999.0,83,-99.99,,,-99.99,,2013-03-09 16:32:00,
2013-03-09 09:41:00,21.0,17.0,29.69,SSW,197,0.0,-999.0,83,-99.99,,,-99.99,,2013-03-09 16:41:00,
2013-03-09 09:52:00,22.0,18.0,29.69,SSW,197,0.0,-999.0,84,-99.99,,,-99.99,,2013-03-09 16:52:00,
2013-03-09 10:01:00,22.0,17.0,29.69,SSW,197,0.0,-999.0,81,-99.99,,,-99.99,,2013-03-09 17:01:00,
2013-03-09 10:11:00,22.0,17.0,29.69,SSW,197,0.0,-999.0,81,-99.99,,,-99.99,,2013-03-09 17:11:00,
2013-03-09 10:22:00,23.0,18.0,29.70,SSW,197,0.0,-999.0,81,-99.99,,,-99.99,,2013-03-09 17:22:00,
2013-03-09 10:32:00,23.0,18.0,29.69,SSW,197,0.0,-999.0,81,-99.99,,,-99.99,,2013-03-09 17:32:00,
2013-03-09 10:42:00,23.0,18.0,29.69,SSW,197,0.0,-999.0,81,-99.99,,,-99.99,,2013-03-09 17:42:00,
2013-03-09 10:52:00,23.0,17.0,29.70,SSW,198,0.0,-999.0,79,-99.99,,,-99.99,,2013-03-09 17:52:00,
2013-03-09 11:01:00,23.0,18.0,29.70,SSW,198,0.0,-999.0,82,-99.99,,,-99.99,,2013-03-09 18:01:00,
2013-03-09 11:11:00,23.0,18.0,29.70,SSW,198,0.0,-999.0,82,-99.99,,,-99.99,,2013-03-09 18:11:00,
2013-03-09 11:21:00,23.0,18.0,29.70,SSW,198,0.0,-999.0,80,-99.99,,,-99.99,,2013-03-09 18:21:00,
2013-03-09 11:31:00,23.0,18.0,29.72,SSW,200,0.0,-999.0,81,-99.99,,,-99.99,,2013-03-09 18:31:00,
2013-03-09 11:42:00,23.0,18.0,29.72,SSW,200,0.0,-999.0,81,-99.99,,,-99.99,,2013-03-09 18:42:00,
2013-03-09 11:52:00,22.0,17.0,29.72,SSW,200,0.0,-999.0,82,-99.99,,,-99.99,,2013-03-09 18:52:00,
2013-03-09 12:01:00,22.0,17.0,29.72,NW,311,0.0,-999.0,82,-99.99,,,-99.99,,2013-03-09 19:01:00,
2013-03-09 12:11:00,22.0,17.0,29.72,NW,311,0.0,-999.0,82,-99.99,,,-99.99,,2013-03-09 19:11:00,
2013-03-09 12:22:00,22.0,18.0,29.73,WNW,296,0.0,-999.0,84,-99.99,,,-99.99,,2013-03-09 19:22:00,
2013-03-09 12:32:00,22.0,17.0,29.74,WNW,296,0.0,-999.0,82,-99.99,,,-99.99,,2013-03-09 19:32:00,
2013-03-09 12:42:00,22.0,17.0,29.74,WNW,296,0.0,-999.0,82,-99.99,,,-99.99,,2013-03-09 19:42:00,
2013-03-09 12:52:00,22.0,17.0,29.74,WNW,296,0.0,-999.0,82,-99.99,,,-99.99,,2013-03-09 19:52:00,
2013-03-09 13:01:00,22.0,18.0,29.74,WNW,296,0.0,-999.0,83,-99.99,,,-99.99,,2013-03-09 20:01:00,
2013-03-09 13:11:00,22.0,18.0,29.74,WNW,296,0.0,-999.0,83,-99.99,,,-99.99,,2013-03-09 20:11:00,
2013-03-09 13:21:00,22.0,17.0,29.74,WNW,296,0.0,-999.0,82,-99.99,,,-99.99,,2013-03-09 20:21:00,
2013-03-09 13:32:00,22.0,17.0,29.75,WNW,296,0.0,-999.0,82,-99.99,,,-99.99,,2013-03-09 20:32:00,
2013-03-09 13:42:00,22.0,17.0,29.75,WNW,296,0.0,-999.0,82,-99.99,,,-99.99,,2013-03-09 20:42:00,
2013-03-09 13:52:00,22.0,18.0,29.75,WNW,296,0.0,-999.0,83,-99.99,,,-99.99,,2013-03-09 20:52:00,
2013-03-09 14:02:00,23.0,18.0,29.75,WNW,296,0.0,-999.0,80,-99.99,,,-99.99,,2013-03-09 21:02:00,
2013-03-09 14:12:00,23.0,18.0,29.75,WNW,296,0.0,-999.0,80,-99.99,,,-99.99,,2013-03-09 21:12:00,
2013-03-09 14:21:00,24.0,18.0,29.75,NW,306,1.0,-999.0,79,-99.99,,,-99.99,,2013-03-09 21:21:00,
2013-03-09 14:32:00,25.0,19.0,29.76,West,281,1.0,-999.0,79,-99.99,,,-99.99,,2013-03-09 21:32:00,
2013-03-09 14:42:00,25.0,19.0,29.76,West,281,1.0,-999.0,79,-99.99,,,-99.99,,2013-03-09 21:42:00,
2013-03-09 14:52:00,25.0,18.0,29.77,West,269,2.0,-999.0,75,-99.99,,,-99.99,,2013-03-09 21:52:00,
2013-03-09 15:01:00,24.0,18.0,29.78,SSW,205,3.0,-999.0,76,-99.99,,,-99.99,,2013-03-09 22:01:00,
2013-03-09 15:11:00,24.0,18.0,29.78,SSW,205,3.0,-999.0,76,-99.99,,,-99.99,,2013-03-09 22:11:00,
2013-03-09 15:21:00,24.0,17.0,29.79,West,265,3.0,-999.0,74,-99.99,,,-99.99,,2013-03-09 22:21:00,
2013-03-09 15:32:00,24.0,17.0,29.80,South,186,2.0,-999.0,74,-99.99,,,-99.99,,2013-03-09 22:32:00,
2013-03-09 15:41:00,24.0,17.0,29.80,South,186,2.0,-999.0,74,-99.99,,,-99.99,,2013-03-09 22:41:00,
2013-03-09 15:52:00,23.0,16.0,29.81,SW,223,2.0,-999.0,75,-99.99,,,-99.99,,2013-03-09 22:52:00,
2013-03-09 16:01:00,22.0,15.0,29.83,South,174,2.0,-999.0,74,-99.99,,,-99.99,,2013-03-09 23:01:00,
2013-03-09 16:11:00,22.0,15.0,29.83,South,174,2.0,-999.0,74,-99.99,,,-99.99,,2013-03-09 23:11:00,
2013-03-09 16:21:00,22.0,15.0,29.84,SW,215,2.0,-999.0,74,-99.99,,,-99.99,,2013-03-09 23:21:00,
2013-03-09 16:32:00,21.0,14.0,29.84,South,180,2.0,-999.0,74,-99.99,,,-99.99,,2013-03-09 23:32:00,
2013-03-09 16:41:00,21.0,14.0,29.84,South,180,2.0,-999.0,74,-99.99,,,-99.99,,2013-03-09 23:41:00,
2013-03-09 16:52:00,20.0,13.0,29.86,SSE,164,2.0,-999.0,74,-99.99,,,-99.99,,2013-03-09 23:52:00,
2013-03-09 17:01:00,19.0,12.0,29.88,SSE,162,2.0,-999.0,75,-99.99,,,-99.99,,2013-03-10 00:01:00,
2013-03-09 17:11:00,19.0,12.0,29.88,SSE,162,2.0,-999.0,75,-99.99,,,-99.99,,2013-03-10 00:11:00,
2013-03-09 17:22:00,19.0,13.0,29.90,West,265,2.0,-999.0,76,-99.99,,,-99.99,,2013-03-10 00:22:00,
2013-03-09 17:32:00,18.0,12.0,29.91,WNW,302,2.0,-999.0,76,-99.99,,,-99.99,,2013-03-10 00:32:00,
2013-03-09 17:42:00,18.0,12.0,29.91,WNW,302,2.0,-999.0,76,-99.99,,,-99.99,,2013-03-10 00:42:00,
2013-03-09 17:51:00,17.0,11.0,29.92,SSE,165,2.0,-999.0,76,-99.99,,,-99.99,,2013-03-10 00:51:00,
2013-03-09 18:01:00,17.0,11.0,29.94,West,271,1.0,-999.0,78,-99.99,,,-99.99,,2013-03-10 01:01:00,
2013-03-09 18:11:00,17.0,11.0,29.94,West,271,1.0,-999.0,78,-99.99,,,-99.99,,2013-03-10 01:11:00,
2013-03-09 18:21:00,16.0,10.0,29.96,SSE,157,2.0,-999.0,78,-99.99,,,-99.99,,2013-03-10 01:21:00,
2013-03-09 18:31:00,16.0,10.0,29.96,SW,234,1.0,-999.0,77,-99.99,,,-99.99,,2013-03-10 01:31:00,
2013-03-09 18:41:00,16.0,10.0,29.96,SW,234,1.0,-999.0,77,-99.99,,,-99.99,,2013-03-10 01:41:00,
2013-03-09 18:52:00,15.0,9.0,29.98,WSW,258,1.0,-999.0,77,-99.99,,,-99.99,,2013-03-10 01:52:00,
2013-03-09 19:01:00,15.0,9.0,29.98,SW,222,2.0,-999.0,76,-99.99,,,-99.99,,2013-03-10 02:01:00,
2013-03-09 19:11:00,15.0,9.0,29.98,SW,222,2.0,-999.0,76,-99.99,,,-99.99,,2013-03-10 02:11:00,
2013-03-09 19:22:00,15.0,9.0,30.00,SSW,207,1.0,-999.0,76,-99.99,,,-99.99,,2013-03-10 02:22:00,
2013-03-09 19:31:00,15.0,8.0,30.02,SW,224,2.0,-999.0,74,-99.99,,,-99.99,,2013-03-10 02:31:00,
2013-03-09 19:42:00,15.0,8.0,30.02,SW,224,2.0,-999.0,74,-99.99,,,-99.99,,2013-03-10 02:42:00,
2013-03-09 19:52:00,14.0,7.0,30.03,ENE,69,3.0,-999.0,74,-99.99,,,-99.99,,2013-03-10 02:52:00,
2013-03-09 20:01:00,14.0,8.0,30.04,SW,228,1.0,-999.0,75,-99.99,,,-99.99,,2013-03-10 03:01:00,
2013-03-09 20:11:00,14.0,8.0,30.04,West,279,1.0,-999.0,75,-99.99,,,-99.99,,2013-03-10 03:11:00,
2013-03-09 20:22:00,14.0,8.0,30.04,West,279,1.0,-999.0,75,-99.99,,,-99.99,,2013-03-10 03:22:00,
2013-03-09 20:32:00,13.0,7.0,30.06,NE,38,0.0,-999.0,75,-99.99,,,-99.99,,2013-03-10 03:32:00,
2013-03-09 20:42:00,13.0,7.0,30.06,NE,38,0.0,-999.0,75,-99.99,,,-99.99,,2013-03-10 03:42:00,
2013-03-09 20:52:00,13.0,6.0,30.08,SW,217,1.0,-999.0,73,-99.99,,,-99.99,,2013-03-10 03:52:00,
2013-03-09 21:01:00,13.0,6.0,30.08,SW,217,1.0,-999.0,73,-99.99,,,-99.99,,2013-03-10 04:01:00,
2013-03-09 21:11:00,13.0,6.0,30.08,SW,217,1.0,-999.0,73,-99.99,,,-99.99,,2013-03-10 04:11:00,
2013-03-09 21:21:00,12.0,5.0,30.10,SSW,213,0.0,-999.0,73,-99.99,,,-99.99,,2013-03-10 04:21:00,
2013-03-09 21:31:00,11.0,4.0,30.11,SSW,213,0.0,-999.0,73,-99.99,,,-99.99,,2013-03-10 04:31:00,
2013-03-09 21:42:00,11.0,4.0,30.11,SSW,213,0.0,-999.0,73,-99.99,,,-99.99,,2013-03-10 04:42:00,
2013-03-09 21:52:00,10.0,3.0,30.12,SW,218,0.0,-999.0,74,-99.99,,,-99.99,,2013-03-10 04:52:00,
2013-03-09 22:01:00,9.0,2.0,30.14,West,269,0.0,-999.0,74,-99.99,,,-99.99,,2013-03-10 05:01:00,
2013-03-09 22:11:00,9.0,2.0,30.14,West,269,0.0,-999.0,74,-99.99,,,-99.99,,2013-03-10 05:11:00,
2013-03-09 22:22:00,9.0,2.0,30.14,WSW,248,1.0,-999.0,72,-99.99,,,-99.99,,2013-03-10 05:22:00,
2013-03-09 22:31:00,9.0,2.0,30.15,WSW,248,0.0,-999.0,72,-99.99,,,-99.99,,2013-03-10 05:31:00,
2013-03-09 22:42:00,8.0,1.0,30.16,WSW,247,0.0,-999.0,72,-99.99,,,-99.99,,2013-03-10 05:42:00,
2013-03-09 22:52:00,8.0,1.0,30.16,WSW,247,0.0,-999.0,72,-99.99,,,-99.99,,2013-03-10 05:52:00,
2013-03-09 23:01:00,8.0,1.0,30.16,WSW,247,0.0,-999.0,72,-99.99,,,-99.99,,2013-03-10 06:01:00,
2013-03-09 23:11:00,8.0,1.0,30.16,WSW,247,0.0,-999.0,72,-99.99,,,-99.99,,2013-03-10 06:11:00,
2013-03-09 23:22:00,7.0,0.0,30.18,WSW,243,0.0,-999.0,74,-99.99,,,-99.99,,2013-03-10 06:22:00,
2013-03-09 23:32:00,6.0,0.0,30.19,WSW,243,0.0,-999.0,75,-99.99,,,-99.99,,2013-03-10 06:32:00,
2013-03-09 23:42:00,5.0,-1.0,30.19,WSW,243,0.0,-999.0,77,-99.99,,,-99.99,,2013-03-10 06:42:00,
2013-03-09 23:52:00,5.0,-1.0,30.19,WSW,243,0.0,-999.0,77,-99.99,,,-99.99,,2013-03-10 06:52:00,